Hourly Weather Abrickaya Sloboda

Today, 27 November, Friday

Time Temperature Precipitation Wind Pressure Humidity
00:00 -3°C° 0 mm 4 mps 733 mmHg 88%
01:00 -3°C° 0 mm 4 mps 733 mmHg 89%
02:00 -2°C° 0 mm 3 mps 733 mmHg 92%
03:00 -2°C° 0 mm 4 mps 732 mmHg 92%
04:00 -1°C° 0 mm 4 mps 732 mmHg 91%
05:00 -1°C° 0 mm 4 mps 731 mmHg 91%
06:00 -1°C° 0.2 mm 4 mps 731 mmHg 92%
07:00 0°C° 0.2 mm 5 mps 731 mmHg 92%
08:00 0°C° 0 mm 5 mps 730 mmHg 92%
09:00 0°C° 0.2 mm 5 mps 730 mmHg 91%
10:00 +1°C° 0.2 mm 5 mps 730 mmHg 91%
11:00 +1°C° 0.2 mm 6 mps 730 mmHg 91%
12:00 +1°C° 0.3 mm 6 mps 730 mmHg 90%
13:00 +1°C° 0.3 mm 6 mps 731 mmHg 90%
14:00 +1°C° 0.3 mm 6 mps 731 mmHg 90%
15:00 +1°C° 0 mm 6 mps 731 mmHg 87%
16:00 0°C° 0 mm 5 mps 731 mmHg 85%
17:00 0°C° 0 mm 4 mps 731 mmHg 82%
18:00 -1°C° 0.1 mm 4 mps 732 mmHg 86%
19:00 -1°C° 0.1 mm 4 mps 732 mmHg 89%
20:00 -2°C° 0.1 mm 4 mps 732 mmHg 93%
21:00 -1°C° 0.2 mm 3 mps 732 mmHg 93%
22:00 -1°C° 0.2 mm 3 mps 733 mmHg 93%
23:00 -2°C° 0.2 mm 2 mps 733 mmHg 93%

Tomorrow, 28 November, Saturday

Time Temperature Precipitation Wind Pressure Humidity
00:00 -2°C° 0 mm 2 mps 733 mmHg 94%
01:00 -2°C° 0 mm 2 mps 733 mmHg 95%
02:00 -3°C° 0 mm 2 mps 733 mmHg 95%
03:00 -3°C° 0 mm 2 mps 734 mmHg 95%
04:00 -3°C° 0 mm 2 mps 734 mmHg 94%
05:00 -3°C° 0 mm 2 mps 734 mmHg 93%
06:00 -3°C° 0 mm 2 mps 734 mmHg 91%
07:00 -3°C° 0 mm 2 mps 734 mmHg 89%
08:00 -3°C° 0 mm 2 mps 735 mmHg 87%
09:00 0°C° 0 mm 1 mps 735 mmHg 84%
10:00 0°C° 0 mm 1 mps 735 mmHg 81%
11:00 0°C° 0 mm 1 mps 736 mmHg 78%
12:00 0°C° 0 mm 1 mps 736 mmHg 77%
13:00 0°C° 0 mm 1 mps 736 mmHg 76%
14:00 -1°C° 0 mm 0 mps 736 mmHg 75%
15:00 0°C° 0 mm 1 mps 736 mmHg 77%
16:00 0°C° 0 mm 1 mps 736 mmHg 79%
17:00 0°C° 0 mm 1 mps 736 mmHg 82%
18:00 0°C° 0 mm 1 mps 736 mmHg 84%
19:00 0°C° 0 mm 1 mps 737 mmHg 86%
20:00 0°C° 0 mm 1 mps 737 mmHg 88%
21:00 -2°C° 0 mm 2 mps 737 mmHg 90%
22:00 -2°C° 0 mm 2 mps 737 mmHg 92%
23:00 -1°C° 0 mm 2 mps 738 mmHg 93%

Day after tomorrow, 29 November, Sunday

Time Temperature Precipitation Wind Pressure Humidity
00:00 -1°C° 0.1 mm 2 mps 738 mmHg 94%
01:00 -1°C° 0.1 mm 3 mps 738 mmHg 95%
02:00 -1°C° 0.1 mm 3 mps 738 mmHg 96%
03:00 -1°C° 0.2 mm 3 mps 738 mmHg 96%
04:00 -2°C° 0.2 mm 3 mps 738 mmHg 96%
05:00 -2°C° 0.2 mm 3 mps 738 mmHg 97%
06:00 -2°C° 0.3 mm 3 mps 738 mmHg 96%
07:00 -2°C° 0.3 mm 3 mps 738 mmHg 96%
08:00 -2°C° 0.3 mm 3 mps 738 mmHg 95%
09:00 -2°C° 0.1 mm 3 mps 738 mmHg 92%
10:00 -2°C° 0.1 mm 3 mps 738 mmHg 90%
11:00 -1°C° 0.1 mm 3 mps 738 mmHg 87%
12:00 -1°C° 0 mm 3 mps 738 mmHg 87%
13:00 -1°C° 0 mm 3 mps 738 mmHg 86%
14:00 -1°C° 0 mm 3 mps 738 mmHg 86%
15:00 -1°C° 0 mm 3 mps 737 mmHg 88%
16:00 -2°C° 0 mm 2 mps 737 mmHg 91%
17:00 -2°C° 0 mm 2 mps 737 mmHg 93%
18:00 -2°C° 0.1 mm 2 mps 737 mmHg 94%
19:00 -2°C° 0.1 mm 2 mps 737 mmHg 95%
20:00 -3°C° 0.1 mm 2 mps 737 mmHg 96%
21:00 -3°C° 0.1 mm 2 mps 737 mmHg 96%
22:00 -3°C° 0.1 mm 2 mps 737 mmHg 96%
23:00 -3°C° 0.1 mm 2 mps 737 mmHg 96%

30 November, Monday

Time Temperature Precipitation Wind Pressure Humidity
00:00 -3°C° 0.1 mm 2 mps 737 mmHg 96%
01:00 -3°C° 0.1 mm 2 mps 737 mmHg 96%
02:00 -3°C° 0.1 mm 2 mps 737 mmHg 97%
03:00 -3°C° 0 mm 2 mps 738 mmHg 97%
04:00 -3°C° 0 mm 2 mps 738 mmHg 96%
05:00 -3°C° 0 mm 2 mps 738 mmHg 96%
06:00 -3°C° 0 mm 2 mps 738 mmHg 96%
07:00 -4°C° 0 mm 2 mps 739 mmHg 96%
08:00 -4°C° 0 mm 2 mps 739 mmHg 96%
09:00 -4°C° 0 mm 3 mps 739 mmHg 93%
10:00 -4°C° 0 mm 3 mps 740 mmHg 91%
11:00 -2°C° 0 mm 3 mps 740 mmHg 89%
12:00 -2°C° 0 mm 3 mps 740 mmHg 87%
13:00 -3°C° 0 mm 4 mps 740 mmHg 85%
14:00 -3°C° 0 mm 4 mps 741 mmHg 83%
15:00 -2°C° 0 mm 3 mps 741 mmHg 84%
16:00 -4°C° 0 mm 3 mps 741 mmHg 85%
17:00 -4°C° 0 mm 3 mps 741 mmHg 86%
18:00 -4°C° 0 mm 3 mps 742 mmHg 87%
19:00 -4°C° 0 mm 3 mps 742 mmHg 88%
20:00 -4°C° 0 mm 3 mps 743 mmHg 89%
21:00 -4°C° 0 mm 3 mps 743 mmHg 88%
22:00 -4°C° 0 mm 3 mps 743 mmHg 86%
23:00 -4°C° 0 mm 3 mps 743 mmHg 85%

1 December, Tuesday

Time Temperature Precipitation Wind Pressure Humidity
00:00 -4°C° 0 mm 3 mps 743 mmHg 85%
01:00 -5°C° 0 mm 3 mps 743 mmHg 85%
02:00 -5°C° 0 mm 3 mps 743 mmHg 85%
03:00 -5°C° 0 mm 3 mps 743 mmHg 85%
04:00 -5°C° 0 mm 3 mps 743 mmHg 85%
05:00 -5°C° 0 mm 3 mps 743 mmHg 85%
06:00 -5°C° 0 mm 3 mps 743 mmHg 83%
07:00 -5°C° 0 mm 3 mps 743 mmHg 82%
08:00 -5°C° 0 mm 4 mps 743 mmHg 81%
09:00 -5°C° 0 mm 4 mps 743 mmHg 79%
10:00 -4°C° 0 mm 4 mps 743 mmHg 77%
11:00 -4°C° 0 mm 4 mps 743 mmHg 76%
12:00 -4°C° 0 mm 3 mps 743 mmHg 76%
13:00 -4°C° 0 mm 3 mps 743 mmHg 76%
14:00 -4°C° 0 mm 3 mps 743 mmHg 76%
15:00 -4°C° 0 mm 3 mps 743 mmHg 78%
16:00 -4°C° 0 mm 2 mps 743 mmHg 79%
17:00 -4°C° 0 mm 2 mps 743 mmHg 81%
18:00 -4°C° 0 mm 2 mps 743 mmHg 82%
19:00 -4°C° 0 mm 2 mps 743 mmHg 83%
20:00 -5°C° 0 mm 2 mps 743 mmHg 84%
21:00 -5°C° 0 mm 2 mps 743 mmHg 85%
22:00 -5°C° 0 mm 2 mps 743 mmHg 86%
23:00 -3°C° 0 mm 1 mps 743 mmHg 87%

2 December, Wednesday

Time Temperature Precipitation Wind Pressure Humidity
00:00 -3°C° 0 mm 1 mps 743 mmHg 88%
01:00 -3°C° 0 mm 1 mps 743 mmHg 89%
02:00 -3°C° 0 mm 1 mps 743 mmHg 89%
03:00 -5°C° 0 mm 2 mps 743 mmHg 90%
04:00 -5°C° 0 mm 2 mps 743 mmHg 91%
05:00 -5°C° 0 mm 2 mps 743 mmHg 91%
06:00 -5°C° 0 mm 2 mps 743 mmHg 92%
07:00 -5°C° 0 mm 2 mps 743 mmHg 93%
08:00 -5°C° 0 mm 2 mps 743 mmHg 94%
09:00 -4°C° 0 mm 2 mps 743 mmHg 93%
10:00 -3°C° 0 mm 2 mps 743 mmHg 93%
11:00 -3°C° 0 mm 2 mps 743 mmHg 92%
12:00 -3°C° 0 mm 2 mps 743 mmHg 92%
13:00 -2°C° 0 mm 2 mps 743 mmHg 91%
14:00 -2°C° 0 mm 2 mps 743 mmHg 90%
15:00 -2°C° 0 mm 2 mps 743 mmHg 91%
16:00 -3°C° 0 mm 2 mps 743 mmHg 91%
17:00 -3°C° 0 mm 2 mps 743 mmHg 92%
18:00 -3°C° 0 mm 2 mps 743 mmHg 92%
19:00 -3°C° 0 mm 2 mps 744 mmHg 92%
20:00 -1°C° 0 mm 1 mps 744 mmHg 92%
21:00 -1°C° 0 mm 1 mps 744 mmHg 92%
22:00 -1°C° 0 mm 1 mps 744 mmHg 92%
23:00 -1°C° 0 mm 1 mps 744 mmHg 92%
Show more

We Need Your Consent

Meteoprog and our Service Providers may store and access personal data such as cookies, device identifiers or other similar technologies on your device and process such data to personalise content and ads, as well as provide social media features and to analyse the traffic.

  • Store and/or access information on your device

    Cookies, device identifiers or other information can be stored or accessed on your device for the purposes indicated above.

  • Personalised ads and content, ad and content measurement, audience insights, and products development

    Ads and content can be personalised based on a profile. More data can be added to better personalise ads and content. Ad and content performance can be measured. Insights about the audience who saw the ads and content can be derived. Such data can be used to develop or improve user’s experience, systems and software.

By clicking ‘I Agree’ you will allow the use of indicated cookies, device identifiers, web beacons or other similar technologies. Your settings can be changed in the browser on your device.

For certain purposes, legitimate interests may be relied on, rather than consent. You can read more about this in our Privacy and Cookie Policy.